Regional Weather Roundup
Issued by NWS

Home | Current Version | Previous Version | Graphics & Text | Print | Product List | Glossary Off
Versions: 1 2 3 4 5 6 7 8 9 10 11 12 13 14 15 16 17 18 19 20 21 22 23 24 25 26 27 28 29 30 31 32 33 34 35 36 37 38 39 40 41 42 43 44 45 46 47 48 49 50

000
ASUS43 KTOP 230259
RWRKS

WEATHER ROUNDUP FOR KANSAS
NATIONAL WEATHER SERVICE GOODLAND KS
1000 PM CDT FRI SEP 22 2017

NOTE:  "FAIR" INDICATES FEW OR NO CLOUDS BELOW 12,000 FEET WITH NO
SIGNIFICANT WEATHER AND/OR OBSTRUCTIONS TO VISIBILITY.

KSZ001>006-013>018-027>032-041>047-230400-
NORTHWEST KANSAS

CITY           SKY/WX    TMP DP  RH WIND       PRES   REMARKS
GOODLAND       PTCLDY    79  55  43 S24G32    29.80R
HAYS           MOCLDY    82  64  54 S22G29    29.84R
HILL CITY      CLEAR     84  60  44 S17G25    29.83R
RUSSELL        CLEAR     82  64  54 S21G30    29.83S
$$

KSZ061>065-074>080-084>089-230400-
SOUTHWEST KANSAS

CITY           SKY/WX    TMP DP  RH WIND       PRES   REMARKS
DODGE CITY     CLOUDY    80  63  55 S23G30    29.87R
ELKHART          N/A    N/A N/A N/A MISG        N/A
GARDEN CITY    PTCLDY    79  62  56 S20G29    29.85S
GREAT BEND     CLOUDY    81  65  58 SE20G25   29.86S
LIBERAL        PTCLDY    78  62  57 S15       29.87R
$$

KSZ066>073-081>083-090>101-230400-
SOUTHEAST KANSAS

CITY           SKY/WX    TMP DP  RH WIND       PRES   REMARKS
CHANUTE        CLEAR     77  68  73 SE8       29.95R
COFFEYVILLE    CLEAR     75  67  76 SE3       29.94R
HUTCHINSON     CLEAR     80  69  69 S18       29.90R
MEDICINE LODGE   N/A     79  65  62 S10       29.89R
NEWTON         CLEAR     78  68  71 S16       29.93R
PARSONS        CLEAR     76  67  73 SE5       29.95S
WICHITA INTL   CLEAR     79  69  71 S15       29.92R
WICHITA JABRA  CLEAR     78  69  73 S12G21    29.92R
WICHITA MCCONL CLEAR     79  67  66 S12       29.93R
WINFIELD       CLEAR     78  69  73 S10       29.94R
$$

KSZ007>012-019>026-033>040-048>060-102>105-230400-
NORTHEAST KANSAS

CITY           SKY/WX    TMP DP  RH WIND       PRES   REMARKS
CONCORDIA      CLEAR     79  67  66 S12       29.87R
EMPORIA        CLEAR     77  67  71 SE13      29.93R
LAWRENCE       CLEAR     75  70  84 E6        29.93R
MANHATTAN      CLEAR     81  68  64 S12       29.89R
OLATHE IND     CLEAR     77  68  73 SE10      29.96R
OLATHE EXE     CLEAR     74  69  85 S8        29.96R
SALINA         CLEAR     83  67  58 SE13      29.88R
TOPEKA BILLARD CLEAR     78  70  76 SE7       29.92R
TOPEKA FORBES  CLEAR     78  69  73 SE8       29.93R
$$




USA.gov is the U.S. government's official web portal to all federal, state and local government web resources and services.